Location: Amsterdam
(30.7274°N, 84.4357°W)
Time: 18:37:45
(UTC+00:00)

Courier 1B Rocket - Pass Details

Date: 14 February 2026
Orbit: 920 x 1201 km, 28.2° (Epoch: 10 March)

Event Time Altitude Azimuth Distance (km) Brightness Sun altitude
Rises 23:24:16 0° 206° (SSW) 3,536 8.6 -0.7°
Reaches altitude 10° 23:27:59 10° 185° (S) 2,602 7.5 -1.5°
Maximum altitude 23:31:30 16° 150° (SSE) 2,244 6.8 -2.2°
Drops below altitude 10° 23:35:05 10° 115° (ESE) 2,653 6.8 -2.9°
Enters shadow 23:38:12 - 97° (E) 3,437 7.3 -3.6°
Sets 23:38:54 0° 94° (E) 3,645 - -3.7°
